Date String (YYYY-MM-DD hh:mm:ss) UTC,Instrument flags,absolute air pressure of the measurement (hPa),sample flow rate (lpm),inlet stack bypass flow (lpm),air temperature of the measurement (°C),ambient temperature measured by the external sensor (°C),aerosol sample conditioner tube jacket temperature (°C),OPC LED temperature (°C),internal box temperature (°C),relative humidity of the measurement (%),span deviation,mass concentration of particles derived from Lorenz-Mie calculation of OPC scattering (μg/m³),mass concentration of particles derived from Lorenz-Mie calculation of OPC scattering (μg/m³),mass concentration of particles derived from Lorenz-Mie calculation of OPC scattering (μg/m³)
DateTimeUTC,F1_M11,P_M11,Q1_M11,Q2_M11,T1_M11,T2_M11,T3_M11,T4_M11,T5_M11,U1_M11,ZSPAN_M11,X0_M11,X2_M11,X1_M11
2023-10-23 16:00:00,SystemResetWarning,0823.9,5.00,000.00,029.3,028.0,000.0,037.7,030.9,13.0,0000.0,0013.53,0005.08,0003.92
2023-10-23 16:01:00,SystemResetWarning,0823.9,5.00,000.00,029.3,028.1,000.0,037.7,030.9,13.0,0000.0,0013.48,0005.00,0003.91
2023-10-23 16:02:00,SystemResetWarning,0823.9,5.00,000.00,029.3,028.1,000.0,037.7,030.9,13.0,0000.0,0013.75,0004.92,0003.89
2023-10-23 16:03:00,SystemResetWarning,0823.9,5.00,000.00,029.4,028.2,000.0,037.7,031.0,12.9,0000.0,0013.44,0004.86,0003.89
2023-10-23 16:04:00,SystemResetWarning,0823.9,5.00,000.00,029.4,028.2,000.0,037.8,031.0,12.8,0000.0,0012.90,0004.80,0003.89
2023-10-23 16:05:00,SystemResetWarning,0823.9,5.00,000.00,029.4,028.2,000.0,037.8,031.0,13.0,0000.0,0011.88,0004.81,0003.88
2023-10-23 16:06:00,SystemResetWarning,0823.8,5.00,000.00,029.4,028.3,000.0,037.8,031.1,12.6,0000.0,0012.10,0004.79,0003.88
2023-10-23 16:07:00,SystemResetWarning,0823.8,4.99,000.00,029.5,027.4,000.0,037.8,031.1,12.5,0000.0,0012.08,0004.80,0003.87
2023-10-23 16:08:00,SystemResetWarning,0823.8,5.00,000.00,029.4,025.6,000.0,037.7,030.9,12.5,0000.0,0012.40,0004.78,0003.87
2023-10-23 16:09:00,SystemResetWarning,0823.8,5.01,000.00,029.3,025.1,000.0,037.6,030.8,12.5,0000.0,0013.05,0004.78,0003.88
2023-10-23 16:10:00,SystemResetWarning,0823.8,5.01,000.00,029.2,025.3,000.0,037.6,030.5,12.4,0000.0,0013.62,0004.84,0003.89
2023-10-23 16:11:00,SystemResetWarning,0823.8,5.00,000.00,029.1,025.6,000.0,037.6,030.5,12.5,0000.0,0013.95,0004.89,0003.89
2023-10-23 16:12:00,SystemResetWarning,0823.8,5.00,000.00,029.1,026.0,000.0,037.6,030.5,12.8,0000.0,0013.86,0004.89,0003.90
2023-10-23 16:13:00,SystemResetWarning,0823.8,5.01,000.00,029.0,026.3,000.0,037.6,030.5,12.8,0000.0,0013.79,0004.86,0003.90
2023-10-23 16:14:00,SystemResetWarning,0823.8,5.00,000.00,029.0,026.6,000.0,037.6,030.6,12.7,0000.0,0013.89,0004.89,0003.91
2023-10-23 16:15:00,SystemResetWarning,0823.8,5.01,000.00,029.0,026.9,000.0,037.6,030.6,12.6,0000.0,0013.78,0004.88,0003.90
2023-10-23 16:16:00,SystemResetWarning,0823.8,5.00,000.00,029.0,027.1,000.0,037.6,030.6,12.6,0000.0,0014.05,0004.86,0003.90
2023-10-23 16:17:00,SystemResetWarning,0823.8,5.00,000.00,029.0,027.3,000.0,037.6,030.6,12.5,0000.0,0014.00,0004.87,0003.90
2023-10-23 16:18:00,SystemResetWarning,0823.8,5.00,000.00,029.1,027.5,000.0,037.6,030.7,12.4,0000.0,0014.35,0004.93,0003.92
2023-10-23 16:19:00,SystemResetWarning,0823.8,5.00,000.00,029.1,027.6,000.0,037.6,030.7,12.5,0000.0,0014.65,0005.00,0003.92
2023-10-23 16:20:00,SystemResetWarning,0823.8,5.00,000.00,029.1,027.7,000.0,037.6,030.8,12.4,0000.0,0014.31,0005.06,0003.94
2023-10-23 16:21:00,SystemResetWarning,0823.8,5.00,000.00,029.1,027.8,000.0,037.6,030.8,12.4,0000.0,0014.11,0005.06,0003.95
2023-10-23 16:22:00,SystemResetWarning,0823.8,5.00,000.00,029.2,027.9,000.0,037.6,030.9,12.4,0000.0,0013.69,0005.02,0003.94
2023-10-23 16:23:00,SystemResetWarning,0823.8,4.99,000.00,029.2,028.0,000.0,037.6,030.9,12.5,0000.0,0014.13,0005.06,0003.94
2023-10-23 16:24:00,SystemResetWarning,0823.8,4.99,000.00,029.2,027.9,000.0,037.6,030.9,12.6,0000.0,0016.49,0005.11,0003.94
2023-10-23 16:25:00,SystemResetWarning,0823.8,5.00,000.00,029.2,026.3,000.0,037.6,030.8,12.3,0000.0,0017.55,0005.15,0003.94
2023-10-23 16:26:00,SystemResetWarning,0823.8,5.00,000.00,029.1,024.8,000.0,037.5,030.6,12.4,0000.0,0018.77,0005.19,0003.95
2023-10-23 16:27:00,SystemResetWarning,0823.8,5.02,000.00,029.0,024.8,000.0,037.4,030.5,12.6,0000.0,0019.31,0005.24,0003.97
2023-10-23 16:28:00,SystemResetWarning,0823.7,4.99,000.00,028.9,025.1,000.0,037.4,030.3,12.8,0000.0,0020.06,0005.25,0003.96
2023-10-23 16:29:00,SystemResetWarning,0823.7,5.00,000.00,028.9,025.5,000.0,037.4,030.2,12.9,0000.0,0019.47,0005.21,0003.95
2023-10-23 16:30:00,SystemResetWarning,0823.8,5.01,000.00,028.8,025.9,000.0,037.4,030.3,13.0,0000.0,0019.39,0005.19,0003.94
2023-10-23 16:31:00,SystemResetWarning,0823.7,5.00,000.00,028.8,026.2,000.0,037.4,030.3,12.9,0000.0,0019.35,0005.15,0003.93
2023-10-23 16:32:00,SystemResetWarning,0823.8,4.99,000.00,028.8,026.5,000.0,037.4,030.4,12.8,0000.0,0019.21,0005.15,0003.93
2023-10-23 16:33:00,SystemResetWarning,0823.7,5.00,000.00,028.8,026.8,000.0,037.4,030.4,12.6,0000.0,0019.31,0005.14,0003.93
2023-10-23 16:34:00,SystemResetWarning,0823.7,5.00,000.00,028.8,027.0,000.0,037.4,030.5,12.7,0000.0,0019.37,0005.12,0003.93
2023-10-23 16:35:00,SystemResetWarning,0823.7,5.01,000.00,028.9,027.2,000.0,037.4,030.5,12.9,0000.0,0017.06,0005.09,0003.93
2023-10-23 16:36:00,SystemResetWarning,0823.6,5.00,000.00,028.9,027.3,000.0,037.4,030.5,13.0,0000.0,0015.88,0005.04,0003.93
2023-10-23 16:37:00,SystemResetWarning,0823.6,4.99,000.00,028.9,027.5,000.0,037.4,030.6,13.0,0000.0,0015.19,0005.04,0003.93
2023-10-23 16:38:00,SystemResetWarning,0823.6,5.00,000.00,028.9,027.6,000.0,037.4,030.6,13.0,0000.0,0015.63,0005.00,0003.94
2023-10-23 16:39:00,SystemResetWarning,0823.6,5.01,000.00,029.0,027.7,000.0,037.4,030.7,13.0,0000.0,0015.57,0004.96,0003.94
2023-10-23 16:40:00,SystemResetWarning,0823.6,5.00,000.00,029.0,027.8,000.0,037.4,030.7,13.2,0000.0,0015.51,0004.96,0003.94
2023-10-23 16:41:00,SystemResetWarning,0823.6,5.01,000.00,029.0,027.9,000.0,037.4,030.7,13.2,0000.0,0015.21,0004.92,0003.94
2023-10-23 16:42:00,SystemResetWarning,0823.7,5.00,000.00,029.1,028.0,000.0,037.5,030.8,12.9,0000.0,0015.04,0004.91,0003.94
2023-10-23 16:43:00,SystemResetWarning,0823.7,5.00,000.00,029.1,028.0,000.0,037.5,030.9,12.8,0000.0,0015.44,0004.87,0003.94
2023-10-23 16:44:00,SystemResetWarning,0823.6,4.98,000.00,029.1,026.7,000.0,037.5,030.8,12.9,0000.0,0016.32,0004.86,0003.94
2023-10-23 16:45:00,SystemResetWarning,0823.6,5.01,000.00,029.0,025.0,000.0,037.4,030.6,12.8,0000.0,0016.15,0004.85,0003.93
2023-10-23 16:46:00,SystemResetWarning,0823.7,5.01,000.00,028.9,024.8,000.0,037.3,030.4,12.9,0000.0,0015.83,0004.86,0003.93
2023-10-23 16:47:00,SystemResetWarning,0823.6,4.99,000.00,028.8,025.1,000.0,037.3,030.2,13.1,0000.0,0016.36,0004.84,0003.93
2023-10-23 16:48:00,SystemResetWarning,0823.6,5.00,000.00,028.8,025.4,000.0,037.3,030.2,13.2,0000.0,0016.67,0004.84,0003.93
2023-10-23 16:49:00,SystemResetWarning,0823.6,5.01,000.00,028.7,025.8,000.0,037.3,030.2,13.3,0000.0,0015.61,0004.86,0003.94
2023-10-23 16:50:00,SystemResetWarning,0823.6,5.00,000.00,028.7,026.2,000.0,037.3,030.3,13.3,0000.0,0014.88,0004.88,0003.94
2023-10-23 16:51:00,SystemResetWarning,0823.6,4.99,000.00,028.7,026.5,000.0,037.3,030.3,13.5,0000.0,0015.24,0004.93,0003.95
2023-10-23 16:52:00,SystemResetWarning,0823.6,5.00,000.00,028.7,026.8,000.0,037.3,030.4,13.4,0000.0,0015.51,0004.99,0003.97
2023-10-23 16:53:00,SystemResetWarning,0823.6,5.01,000.00,028.8,027.0,000.0,037.3,030.4,13.2,0000.0,0015.39,0004.98,0003.97
2023-10-23 16:54:00,SystemResetWarning,0823.5,5.00,000.00,028.8,027.2,000.0,037.3,030.5,13.1,0000.0,0014.94,0004.99,0003.98
2023-10-23 16:55:00,SystemResetWarning,0823.5,5.01,000.00,028.8,027.4,000.0,037.3,030.5,13.2,0000.0,0014.19,0004.99,0003.99
2023-10-23 16:56:00,SystemResetWarning,0823.5,4.99,000.00,028.9,027.5,000.0,037.3,030.6,13.4,0000.0,0014.31,0004.98,0004.01
2023-10-23 16:57:00,SystemResetWarning,0823.5,4.99,000.00,028.9,027.6,000.0,037.3,030.6,13.4,0000.0,0014.09,0004.92,0004.00
2023-10-23 16:58:00,SystemResetWarning,0823.5,5.00,000.00,028.9,027.7,000.0,037.3,030.6,13.5,0000.0,0013.30,0004.94,0003.99
2023-10-23 16:59:00,SystemResetWarning,0823.5,5.00,000.00,029.0,027.8,000.0,037.4,030.7,13.4,0000.0,0012.96,0004.96,0004.00
